IK5ZVE Weather Reports


time (UTC)temp
C
wind
direction
speed
KPH
gust
KPH
rain 1hr
cm
rain 24hr
cm
rain mn
cm
humidity
%
barometer
mb
20260507010007 11 248 0.0 0.0 0.00 6.30 0.00 97 1012.6
20260507004007 11 248 0.0 0.0 0.00 6.35 0.00 97 1012.3
20260507003009 11 248 0.0 0.0 0.00 6.50 0.00 97 1012.7
20260507002008 11 248 0.0 0.0 0.00 6.63 0.00 97 1012.5
20260507001007 11 248 0.0 0.0 0.00 6.81 0.00 97 1012.6
20260507000008 11 225 0.0 0.0 0.00 6.96 0.00 97 1012.5
20260506235007 12 225 0.0 0.0 0.00 7.59 0.00 97 1012.4
20260506234007 12 248 0.0 0.0 0.00 8.13 0.00 97 1012.5
20260506233008 12 248 0.0 0.0 0.00 8.26 0.00 97 1012.4
20260506232008 12 248 0.0 0.0 0.00 8.26 0.00 97 1012.7
20260506231008 12 248 0.0 0.0 0.00 8.28 0.00 96 1012.3
20260506230007 12 248 0.0 0.0 0.00 8.51 0.00 96 1012.3
20260506225007 12 248 0.0 0.0 0.00 8.74 0.00 96 1012.1
20260506224010 12 248 0.0 0.0 0.00 8.74 0.00 96 1012.3
20260506223008 13 248 0.0 1.6 0.00 8.74 0.00 96 1012.4
20260506222008 13 248 1.6 1.6 0.00 8.74 0.00 96 1012.3
20260506221008 13 248 0.0 0.0 0.00 8.74 0.00 96 1012.1
20260506220007 13 248 0.0 1.6 0.00 8.74 0.00 96 1012.1
20260506215008 13 248 0.0 0.0 0.00 8.74 8.74 96 1012.0
20260506214009 13 248 0.0 1.6 0.00 8.74 8.74 96 1012.1
20260506213007 13 248 0.0 1.6 0.00 8.74 8.74 96 1012.1
20260506212007 13 248 0.0 1.6 0.00 8.74 8.74 95 1012.1
20260506211007 14 248 0.0 1.6 0.00 8.74 8.74 95 1011.9
20260506210008 14 248 0.0 3.2 0.00 8.74 8.74 95 1011.9
20260506205007 14 248 1.6 3.2 0.00 8.74 8.74 95 1011.6
20260506204008 14 248 1.6 1.6 0.00 8.74 8.74 94 1011.8
20260506203007 14 248 0.0 0.0 0.00 8.76 8.74 94 1011.8
20260506202008 15 248 0.0 0.0 0.00 8.76 8.74 94 1011.9
20260506201007 15 248 0.0 0.0 0.00 8.76 8.74 94 1011.8
20260506200008 15 248 0.0 0.0 0.00 8.76 8.74 93 1011.6
20260506194007 15 248 0.0 0.0 0.00 8.76 8.74 92 1011.4
20260506193010 15 248 0.0 0.0 0.00 8.76 8.74 92 1011.1
20260506192008 15 248 0.0 0.0 0.00 8.76 8.74 91 1011.0
20260506191007 15 248 0.0 0.0 0.00 8.76 8.74 90 1010.8
20260506190008 16 248 0.0 3.2 0.00 8.76 8.74 89 1010.5
20260506185007 16 248 1.6 4.8 0.00 8.76 8.74 88 1010.3
20260506183007 16 248 3.2 8.0 0.00 8.76 8.74 85 1010.2
20260506182007 17 248 3.2 8.0 0.00 8.76 8.74 83 1010.1
20260506181008 17 248 4.8 8.0 0.00 8.76 8.74 82 1010.0
20260506180007 17 249 3.2 9.7 0.00 8.76 8.74 81 1010.1
20260506175007 17 248 3.2 8.0 0.00 8.76 8.74 81 1010.1
20260506174007 17 292 4.8 9.7 0.00 8.76 8.74 81 1009.8
20260506173007 17 227 8.0 12.9 0.00 8.76 8.74 81 1009.8
20260506172007 17 225 6.4 11.3 0.00 8.76 8.74 79 1009.8
20260506170008 17 226 4.8 12.9 0.00 8.76 8.74 80 1010.0
20260506165007 17 248 4.8 11.3 0.00 8.76 8.74 79 1010.0
20260506164008 17 248 1.6 12.9 0.00 8.76 8.74 82 1010.0
20260506163007 18 226 1.6 11.3 0.00 8.76 8.74 81 1010.2
20260506162007 17 226 6.4 12.9 0.00 8.76 8.74 81 1010.1
20260506161007 17 249 4.8 16.1 0.00 8.76 8.74 81 1010.1
20260506160007 17 270 4.8 14.5 0.00 8.76 8.74 81 1010.0
20260506155008 17 249 9.7 16.1 0.00 8.76 8.74 79 1010.0
20260506154007 18 249 6.4 16.1 0.00 8.76 8.74 77 1010.0
20260506153008 18 269 8.0 19.3 0.00 8.76 8.74 76 1009.9
20260506152009 18 247 8.0 16.1 0.00 8.76 8.74 78 1009.9
20260506151009 18 225 8.0 19.3 0.00 8.76 8.74 76 1010.0
20260506150008 18 204 11.3 24.1 0.00 8.76 8.74 76 1009.8
20260506145007 18 225 11.3 24.1 0.00 8.76 8.74 73 1009.9
20260506144008 18 268 14.5 22.5 0.00 8.76 8.74 74 1009.9
20260506143007 20 290 11.3 22.5 0.00 8.76 8.74 72 1009.8
20260506142007 20 267 11.3 24.1 0.00 8.76 8.74 74 1009.8
20260506141008 18 270 11.3 27.4 0.00 8.76 8.74 78 1009.9
20260506140010 18 270 12.9 25.7 0.00 8.76 8.74 81 1009.7
20260506135007 18 289 8.0 27.4 0.00 8.76 8.74 83 1009.8
20260506134007 18 249 14.5 27.4 0.00 8.76 8.74 83 1010.1
20260506133008 18 225 9.7 25.7 0.00 8.76 8.74 83 1010.3
20260506131008 19 248 14.5 24.1 0.00 8.76 8.74 81 1010.1
20260506130007 18 248 12.9 24.1 0.00 8.76 8.74 83 1010.1
20260506125011 19 227 11.3 27.4 0.00 8.76 8.74 82 1010.1
20260506124007 18 268 11.3 32.2 0.00 8.76 8.74 81 1010.1
20260506123007 18 268 14.5 25.7 0.51 8.76 8.74 82 1010.2
20260506122007 19 248 8.0 20.9 0.51 8.76 8.74 87 1010.0
20260506121007 18 248 4.8 22.5 0.51 8.76 8.74 89 1009.9
20260506120007 17 248 11.3 24.1 0.53 8.76 8.74 96 1009.9
20260506115007 17 291 12.9 25.7 0.53 8.76 8.74 96 1009.6
20260506114008 17 227 14.5 32.2 0.53 8.76 8.74 94 1009.9
20260506113007 18 203 8.0 24.1 0.03 8.26 8.23 87 1009.9
20260506111008 18 201 9.7 27.4 0.03 8.26 8.23 88 1009.7
20260506110009 20 201 8.0 24.1 0.00 8.23 8.18 82 1009.6
20260506105007 20 203 11.3 29.0 0.00 8.23 8.18 79 1009.6
20260506103007 19 95 8.0 16.1 0.00 8.26 8.18 83 1009.7
20260506102008 19 225 8.0 19.3 0.00 8.28 8.18 83 1009.6
20260506095008 19 177 3.2 11.3 0.00 8.31 8.18 82 1009.7
20260506094007 19 224 3.2 29.0 0.00 8.38 8.18 83 1009.6
20260506093007 19 201 8.0 24.1 0.00 9.04 8.18 81 1009.7
20260506091007 19 225 6.4 24.1 0.00 9.93 8.18 82 1009.4
20260506090007 19 183 9.7 27.4 0.00 9.96 8.18 84 1009.4
20260506085007 19 204 11.3 25.7 0.00 9.96 8.18 82 1009.2
20260506084008 20 185 8.0 25.7 0.00 9.98 8.18 84 1009.4
20260506083007 18 183 9.7 25.7 0.00 10.08 8.18 86 1009.5
20260506082007 17 201 9.7 25.7 0.00 10.16 8.18 87 1009.5
20260506081007 16 179 14.5 29.0 0.00 10.21 8.18 92 1009.4
20260506073007 15 95 8.0 19.3 0.10 10.26 8.18 98 1009.5
20260506072007 15 182 8.0 20.9 0.15 10.39 8.18 98 1009.6
20260506071007 15 225 1.6 16.1 0.23 10.67 8.18 98 1009.7
20260506062007 14 202 0.0 0.0 1.17 10.59 8.05 99 1009.6
20260506061008 14 158 0.0 3.2 1.50 10.49 7.95 99 1009.9
20260506051007 13 112 0.0 3.2 1.17 9.22 6.45 99 1009.5
20260506045007 13 248 0.0 3.2 2.34 9.37 6.30 99 1009.6
20260506044008 13 225 0.0 1.6 2.79 9.93 6.27 99 1009.4
20260506043007 13 225 1.6 8.0 2.92 10.21 6.17 99 1009.6
20260506042007 13 68 1.6 8.0 2.64 10.08 5.87 99 1009.5
20260506041007 13 68 1.6 8.0 2.13 9.60 5.28 99 1009.5
20260506040007 13 112 0.0 3.2 1.52 9.40 4.52 99 1009.6
20260506035008 13 90 1.6 4.8 1.04 8.94 3.96 99 1009.5
20260506034007 13 90 0.0 8.0 0.84 8.51 3.48 99 1009.6
20260506033007 13 90 0.0 4.8 0.71 8.41 3.28 99 1009.8
20260506030007 13 68 3.2 14.5 0.53 8.18 3.00 99 1009.9
20260506025008 13 90 1.6 3.2 0.46 8.10 2.92 99 1009.9
20260506024007 13 156 1.6 1.6 0.18 7.82 2.64 99 1010.4
20260506021007 13 158 0.0 0.0 0.00 8.15 2.46 99 1010.0
20260506020007 13 158 0.0 0.0 0.03 8.18 2.46 99 1010.3
20260506015008 13 92 0.0 3.2 0.03 8.26 2.46 99 1010.2
20260506014008 13 90 0.0 0.0 0.10 8.31 2.46 99 1010.4
20260506013007 13 90 0.0 0.0 0.23 8.33 2.46 99 1010.6
20260506012007 13 90 0.0 0.0 0.36 8.43 2.46 99 1010.3
20260506011007 13 90 0.0 4.8 0.53 8.56 2.46 99 1010.5